Погода в Мищенском

Россия / Ставропольский край     44°35′55″N   41°36′13″E
темп.,
°C
ветер,
м/с
пор.,
м/с
влажн.,
%
обл.,
%
осадки,
мм/ч
давл.,
гПа
погр.,
м
12 августа, пт
пт1200:00+19юз22820 0.0 101115
03:00+18юз11824 0.0 101111
06:00+19юз11742 0.0 101216
09:00+27сз214739 0.0 1012778
12:00+31ссв323590 0.0 10111867
15:00+34св443086 0.0 10102877
18:00+23ю71177100 1.3 1012375
21:00+21в228498 2.7 101339
13 августа, сб
сб1300:00+19вюв357724 0.0 101176
03:00+18юв348877 0.0 101168
06:00+18вюв36815 0.0 1012149
09:00+25вюв57450 0.0 1010705
12:00+32в67320 0.0 10081718
15:00+34в77260 0.0 10062392
18:00+33в79220 0.0 10062322
21:00+28в1118260 0.0 1006818
14 августа, вс
вс1400:00+24вюв817330 0.0 1006604
03:00+21вюв513410 0.0 1006378
06:00+19юв37515 0.0 1006195
09:00+26юв334167 0.0 1006511
12:00+31ссв323384 0.0 10051389
15:00+34с33260 0.0 10052183
18:00+33сз33260 0.0 10041340
21:00+24з22510 0.0 100611
15 августа, пн
пн1500:00+21юв01570 0.0 100611
03:00+19ю226357 0.0 100614
06:00+21вюв226341 0.0 100738
09:00+28в334081 0.0 1006649
12:00+35всв56241 0.0 10041700
15:00+38в66190 0.0 10032504
18:00+36в65210 0.0 10032251
21:00+27в36300 0.0 100496
16 августа, вт
вт1600:00+23юв23370 0.0 100660
03:00+21з411680 0.0 1008289
06:00+20зюз36750 0.0 1010162
09:00+28сз45470 0.0 1010874
12:00+33сз66350 0.0 10101676
15:00+34ссз542916 0.0 10092425
18:00+32ссз45360 0.1 1009764
21:00+22зюз32750 1.3 101123